Temp
15 15 15 15 15 15 15 16 16 17 17 17 17 17 17 17 17 16 16 16 16 15 15 14 14 13 13 12 12 12 12 11 11 11 10 10 10 10 10 9 9 9 9 9 8 8 8 8 8 8 8 8 8 8 8 8 8 9 9 9 9 9 9 9 10 11 11 11 11 11 11 10 10 11 11 11 11 12 12 12 13 13 14 14 14
15 16 16 15 15 16 16 16 16 16 16 17 17 17 17 17 17 16 16 16 16 15 15 14 14 13 13 12 12 12 12 11 11 11 10 10 10 10 9 9 9 9 9 9 8 8 8 8 8 8 8 8 8 8 8 8 8 9 9 9 9 9 9 9 9 10 10 10 10 10 10 10 10 10 11 11 11 11 11 12 12 13 13 13 14
15 15 15 15 15 15 16 16 16 16 16 16 16 16 16 17 17 16 16 16 15 15 15 14 14 13 13 12 12 12 11 11 11 10 10 10 9 9 9 9 9 8 8 8 8 8 8 8 8 8 8 7 8 8 8 8 8 8 8 8 9 8 8 8 8 9 9 9 9 10 10 10 9 10 10 10 10 10 11 12 12 12 12 13 13
14 14 14 15 15 15 15 15 15 15 15 15 15 16 16 16 16 16 15 15 15 15 15 14 14 13 13 12 12 12 11 11 11 10 10 10 9 9 9 8 8 8 8 8 8 8 8 8 8 7 7 7 7 8 8 8 8 8 8 8 8 8 8 8 8 8 8 9 9 9 9 9 9 9 9 9 9 10 10 11 11 12 12 12 12
13 13 14 14 14 14 14 14 14 14 14 14 15 15 15 15 15 15 14 14 15 15 14 14 14 13 13 12 12 12 11 11 11 10 10 10 9 9 8 8 8 8 8 7 7 7 7 7 7 7 7 7 7 7 7 7 7 8 8 8 8 8 8 8 8 7 8 8 8 9 9 9 9 9 8 8 9 9 10 11 11 11 12 12 12
12 12 13 13 14 14 14 14 14 14 13 14 14 14 14 14 14 14 13 13 13 14 14 14 14 13 13 12 12 12 11 11 10 10 10 9 9 8 8 8 8 7 7 7 7 7 7 7 7 7 7 7 7 7 7 7 7 7 7 8 8 8 8 8 8 8 7 8 8 8 8 8 8 8 8 8 8 9 9 10 10 11 11 12 12
12 12 12 12 13 13 14 14 14 14 14 14 14 14 14 14 13 13 12 12 12 13 13 13 13 13 12 12 12 12 11 11 10 10 10 9 9 8 8 8 7 7 7 7 7 6 6 6 6 6 6 6 6 6 6 6 6 7 7 7 7 8 8 8 8 8 8 8 8 8 8 8 8 8 8 8 8 8 9 9 10 11 11 12 12
12 12 12 12 12 13 13 13 14 14 14 13 13 13 13 13 12 11 11 11 12 13 13 13 13 12 12 12 12 11 11 10 10 10 9 9 8 8 8 7 7 7 7 7 6 6 6 6 6 6 6 6 6 6 6 6 6 6 7 7 7 7 7 8 8 8 8 8 8 8 8 8 8 8 8 8 8 8 9 9 10 10 10 10 11
11 12 12 12 12 12 12 12 13 13 13 13 13 13 12 11 11 11 11 12 12 12 12 12 12 12 12 12 12 11 11 10 10 10 9 9 8 8 7 7 7 6 6 6 6 6 6 6 6 6 6 6 6 5 5 5 5 5 6 6 6 7 7 7 7 8 8 8 8 8 8 8 8 8 8 8 8 8 8 8 8 9 9 9 10
11 11 11 11 11 12 12 12 12 12 12 13 13 13 12 11 12 12 12 12 12 12 12 12 12 12 12 12 11 11 10 10 10 10 9 8 8 7 7 7 6 6 6 6 6 5 5 5 5 5 5 5 5 5 5 5 4 4 5 5 5 6 6 7 7 7 8 8 8 8 8 8 8 8 8 8 8 7 7 7 7 8 8 9 10
10 10 11 11 11 11 12 12 12 12 12 12 12 12 12 12 12 12 11 12 12 12 12 12 12 12 12 11 11 10 10 10 10 9 8 8 7 7 6 6 5 5 5 5 5 5 5 5 5 5 5 5 5 4 4 4 4 4 4 4 4 5 5 6 6 7 7 7 8 8 8 8 8 8 8 8 7 7 7 6 6 7 7 9 10
10 10 10 10 11 11 12 12 11 11 11 11 11 12 12 12 11 11 11 11 12 12 12 12 12 11 11 11 10 10 10 9 9 8 8 7 7 6 6 5 5 5 5 5 5 5 5 5 4 4 4 4 4 4 4 4 4 3 3 3 3 3 4 4 5 6 6 7 7 7 8 8 8 8 8 8 8 7 7 7 6 6 7 8 8
9 9 9 10 10 11 12 12 11 11 11 11 11 11 11 11 11 11 11 11 11 11 11 11 11 11 10 10 10 9 9 8 8 7 7 6 6 6 5 5 5 5 5 5 4 4 4 4 4 4 3 3 3 3 4 4 3 3 3 3 3 3 3 3 3 4 4 5 6 6 7 7 7 7 7 7 7 7 7 7 7 6 7 7 7
9 9 9 10 10 10 11 11 11 11 10 10 10 10 10 10 11 11 11 11 10 10 10 10 10 10 10 10 10 9 8 8 7 7 6 6 5 5 5 5 5 4 4 4 4 3 3 3 3 3 3 3 3 3 3 3 3 3 3 3 4 4 4 3 3 3 3 3 4 5 5 6 6 6 7 6 6 6 6 7 7 6 6 6 6
8 8 9 9 10 10 10 10 10 10 10 10 10 10 10 10 11 11 10 10 10 10 10 10 10 10 10 10 9 8 7 7 6 6 6 5 5 5 5 5 4 4 4 4 3 3 3 3 2 3 3 3 2 2 2 2 2 2 3 3 3 4 4 4 4 4 3 3 3 4 4 4 5 5 5 5 5 5 5 6 6 6 6 6 6
8 8 8 9 9 9 9 10 10 10 9 9 9 10 10 10 10 10 10 10 9 9 10 10 10 10 9 9 8 7 7 6 6 6 6 5 5 5 5 4 4 4 4 3 3 3 2 2 2 2 2 2 2 1 1 1 1 1 2 2 2 3 3 3 3 3 3 3 3 3 3 4 4 4 4 4 4 5 5 5 5 5 5 5 6
8 8 8 8 9 9 9 9 9 9 9 9 9 10 10 10 10 10 9 9 8 9 9 9 9 9 9 8 8 7 6 6 6 6 5 5 5 5 4 4 4 4 3 3 3 2 2 2 2 2 2 2 2 1 1 0 1 1 1 1 1 2 2 2 2 2 2 2 2 2 2 2 2 2 2 3 3 3 3 4 5 5 5 6 6
8 8 8 8 8 9 9 9 9 9 9 9 9 9 10 9 9 9 9 8 8 8 8 8 8 8 8 8 7 7 6 6 6 6 5 5 5 5 4 4 4 4 3 3 3 2 2 2 1 1 1 1 1 1 0 0 0 1 1 1 1 1 1 1 1 2 2 2 2 1 1 1 1 1 1 2 2 2 2 3 4 5 5 6 6
8 8 8 8 8 9 9 9 9 9 9 9 9 9 9 9 9 8 8 8 7 7 7 8 8 8 7 7 7 7 6 6 6 6 5 5 5 4 4 4 4 4 3 3 3 2 2 2 1 1 1 1 0 -0 -0 -0 -0 0 0 0 0 0 1 1 1 1 1 1 1 2 1 1 1 1 1 1 1 1 2 2 3 4 5 6 6
8 8 8 8 8 8 8 8 8 8 9 9 9 9 8 8 8 7 7 6 6 6 7 8 7 7 7 7 7 7 6 6 6 5 5 5 4 4 4 4 4 4 3 3 2 2 2 2 2 1 1 0 -0 -1 -1 -1 -1 -1 -0 -0 0 0 0 0 0 0 0 0 1 1 1 1 1 1 1 1 1 1 2 2 2 3 4 5 6
8 8 8 8 8 8 8 8 8 8 8 8 8 8 8 7 7 6 6 6 6 6 7 7 7 7 7 7 7 6 6 6 5 5 5 5 4 4 3 3 3 3 3 2 2 2 2 2 2 1 0 -0 -1 -1 -1 -2 -2 -2 -1 -1 -1 -1 -1 -1 -1 -1 -0 -0 -0 0 0 0 1 1 1 1 1 2 2 2 2 3 4 4 5
8 8 8 8 8 8 8 8 8 8 8 8 7 7 7 7 6 6 6 6 6 7 7 7 7 7 6 6 6 6 6 5 5 5 5 4 4 4 3 3 3 2 2 2 2 2 2 1 1 1 -0 -1 -1 -2 -2 -2 -2 -2 -2 -2 -2 -2 -2 -2 -1 -1 -1 -1 -1 -0 0 0 0 0 0 1 1 2 2 2 3 3 3 4 4
7 8 7 7 8 8 8 7 7 7 7 7 6 6 6 6 6 6 7 7 6 6 6 6 6 6 6 6 6 5 5 5 5 5 4 4 4 3 3 3 2 1 1 1 1 1 1 1 0 -0 -1 -1 -2 -2 -2 -2 -2 -2 -2 -2 -2 -2 -2 -2 -2 -1 -1 -1 -1 -1 -0 -0 0 0 0 1 1 1 2 2 3 3 3 3 4
7 7 7 7 7 7 7 7 7 6 6 6 6 5 5 6 6 6 7 7 7 6 6 6 6 6 6 6 5 5 5 5 5 4 4 4 3 3 3 2 2 1 -0 0 0 0 -0 -0 -1 -1 -2 -2 -2 -2 -2 -2 -2 -2 -2 -2 -2 -2 -2 -2 -2 -1 -1 -1 -1 -1 -0 -0 0 0 0 0 1 1 1 2 2 3 3 3 3
7 7 7 7 7 7 7 6 6 6 5 5 5 5 5 6 6 6 7 7 7 6 6 6 6 6 6 6 5 5 5 5 4 4 4 3 3 3 2 2 1 -0 -1 -1 -1 -1 -1 -2 -2 -2 -2 -2 -2 -2 -2 -2 -2 -2 -2 -2 -2 -2 -2 -2 -2 -1 -1 -1 -1 -1 -0 -0 -0 0 0 0 0 1 1 1 2 2 3 3 3
7 7 7 7 6 6 6 5 5 5 5 5 5 6 6 6 6 6 7 7 6 6 6 6 6 6 5 5 5 5 5 4 4 4 3 3 3 2 1 1 0 -1 -1 -1 -1 -1 -2 -2 -2 -2 -2 -2 -2 -2 -2 -2 -2 -2 -2 -2 -2 -2 -2 -2 -1 -1 -1 -1 -1 -1 -0 -0 -0 -0 0 0 0 0 0 1 1 2 2 3 3
6 6 6 6 5 5 5 4 4 5 5 5 6 6 7 7 6 6 6 6 6 6 6 6 6 5 5 5 5 4 4 4 4 4 3 2 2 1 1 1 0 -0 -1 -1 -1 -1 -1 -2 -2 -2 -2 -2 -2 -2 -1 -1 -1 -1 -1 -1 -1 -1 -1 -1 -1 -1 -1 -1 -1 -1 -1 -0 -0 -0 -0 -0 -0 -0 0 1 1 1 2 2 2
5 5 5 5 4 4 4 4 5 5 5 6 6 6 6 7 7 7 7 7 6 6 6 6 5 5 5 5 5 4 4 4 4 3 2 1 1 0 0 0 -0 -1 -1 -1 -2 -2 -2 -2 -1 -1 -1 -1 -1 -1 -1 -1 -1 -1 -1 -1 -1 -1 -1 -1 -1 -1 -1 -1 -1 -1 -1 -1 -1 -1 -1 -1 -0 -0 -0 0 1 1 1 1 2
4 4 4 4 4 4 4 4 4 4 5 5 6 6 7 7 7 7 7 7 7 6 6 6 5 5 5 5 4 4 4 4 3 2 1 1 0 -0 -1 -1 -1 -2 -2 -2 -3 -2 -2 -1 -1 -1 -1 -1 -1 -1 -1 -1 -1 -1 -1 -1 -1 -1 -1 -1 -1 -1 -1 -1 -1 -1 -1 -1 -1 -1 -1 -1 -1 -1 -0 -0 0 0 1 1 1
4 4 4 4 4 5 5 5 5 6 6 6 6 6 7 7 7 7 7 7 7 6 6 6 5 5 5 4 4 4 3 3 2 2 1 1 1 0 -1 -1 -2 -2 -3 -3 -3 -2 -1 -1 -1 -1 -1 -1 -1 -1 -1 -1 -1 -1 -1 -1 -1 -1 -1 -1 -1 -1 -1 -1 -1 -1 -1 -1 -1 -1 -1 -1 -1 -1 -1 -0 -0 0 0 1 1
4 4 5 5 5 5 6 6 7 7 7 7 7 7 7 7 7 7 7 6 6 6 6 5 5 5 5 4 4 3 3 2 2 2 1 1 1 0 -0 -1 -2 -2 -3 -3 -2 -2 -1 -1 -1 -1 -1 -1 -1 -1 -1 -1 -1 -1 -1 -1 -1 -2 -2 -1 -1 -1 -1 -1 -1 -1 -1 -1 -1 -1 -1 -1 -1 -1 -1 -1 -0 -0 0 0 1
5 5 5 5 6 6 7 7 7 7 7 7 7 7 7 6 6 6 6 6 6 6 6 5 5 5 4 4 3 3 3 2 2 1 1 1 1 0 -0 -1 -2 -2 -3 -3 -2 -2 -2 -1 -1 -1 -1 -1 -2 -2 -2 -2 -2 -2 -2 -2 -2 -2 -2 -2 -2 -2 -2 -1 -1 -1 -1 -1 -1 -1 -1 -1 -1 -1 -1 -0 -0 -0 0 0 1
5 5 6 6 6 6 6 7 7 7 7 7 7 7 7 6 6 6 6 6 6 6 6 5 5 5 4 4 3 3 2 2 2 1 1 1 1 0 -1 -1 -2 -2 -2 -2 -2 -1 -2 -2 -2 -2 -2 -2 -2 -2 -2 -2 -2 -2 -2 -2 -2 -2 -2 -2 -2 -2 -2 -2 -1 -1 -1 -1 -1 -1 -1 -1 -1 -1 -0 -0 0 0 0 1 1
5 5 5 5 5 5 6 7 7 7 7 7 7 7 7 7 6 6 6 5 5 5 5 5 5 4 4 3 3 3 2 2 2 1 1 1 0 -1 -1 -2 -2 -2 -2 -2 -2 -2 -2 -2 -2 -2 -2 -2 -2 -2 -2 -2 -2 -2 -2 -2 -2 -2 -2 -2 -2 -2 -2 -2 -1 -1 -1 -1 -1 -1 -1 -1 -1 -0 -0 0 0 1 1 1 1
5 5 5 5 5 6 7 7 7 7 7 7 7 7 7 7 7 6 6 6 6 5 4 4 4 4 4 3 3 3 2 2 2 2 1 1 -0 -1 -1 -1 -1 -1 -2 -2 -2 -2 -2 -2 -2 -2 -2 -3 -3 -3 -3 -3 -3 -3 -3 -3 -2 -2 -2 -2 -2 -2 -2 -2 -1 -1 -1 -1 -1 -1 -1 -0 -0 -0 0 0 1 1 1 1 1
5 5 5 5 5 6 7 8 7 7 7 7 7 7 7 7 7 7 6 6 6 5 4 4 4 4 4 3 3 3 2 2 2 2 2 1 -1 -1 -1 -1 -1 -2 -2 -2 -2 -2 -2 -2 -2 -2 -3 -3 -3 -3 -3 -3 -3 -3 -3 -3 -3 -2 -2 -2 -2 -2 -2 -2 -1 -1 -1 -1 -1 -1 -1 -1 -0 -0 0 1 1 1 1 1 1
6 6 6 6 6 7 8 8 8 8 8 7 7 7 7 7 7 6 6 6 6 5 5 4 4 4 4 3 3 3 3 2 2 2 2 0 -1 -1 -1 -1 -1 -1 -2 -2 -2 -2 -2 -2 -2 -2 -3 -3 -3 -3 -3 -3 -3 -3 -3 -3 -3 -3 -2 -2 -2 -2 -2 -2 -1 -1 -1 -1 -1 -1 -1 -0 -0 0 0 1 1 1 1 1 1
6 6 6 6 6 7 8 8 8 8 8 7 7 7 7 7 6 6 6 5 5 5 4 4 4 4 4 3 3 3 3 3 2 2 1 0 -1 -1 -1 -1 -1 -1 -2 -2 -2 -2 -2 -2 -2 -3 -3 -3 -3 -3 -3 -3 -3 -3 -3 -3 -3 -3 -3 -2 -2 -2 -2 -1 -1 -1 -1 -1 -0 -0 -0 -0 -0 0 0 0 1 1 1 1 1
6 6 6 6 6 7 8 8 8 8 7 7 7 7 7 6 6 6 5 5 5 4 4 4 3 3 3 3 3 3 3 3 2 1 0 -0 -0 -1 -1 -1 -1 -1 -2 -2 -2 -3 -3 -3 -3 -3 -3 -3 -3 -3 -3 -3 -3 -3 -3 -3 -3 -3 -2 -2 -2 -2 -1 -1 -1 -1 -0 -0 -0 -0 -0 -0 0 0 0 0 0 1 1 1 1
6 6 6 6 7 7 8 8 7 7 7 7 7 7 6 6 6 5 5 5 4 4 4 3 2 2 2 3 3 3 2 2 1 0 -0 -1 -1 -1 -1 -1 -1 -2 -2 -2 -3 -3 -3 -3 -3 -3 -3 -3 -3 -3 -3 -3 -3 -3 -3 -3 -3 -3 -2 -2 -2 -2 -1 -1 -1 -0 -0 -0 -0 -0 -0 0 0 0 0 0 0 0 0 1 1
6 6 6 6 7 7 7 7 7 7 7 7 6 6 6 5 5 5 4 4 3 3 3 2 1 1 1 2 2 2 2 1 0 -0 -1 -1 -1 -2 -2 -2 -2 -2 -2 -3 -3 -3 -3 -3 -3 -3 -3 -3 -3 -3 -3 -3 -3 -3 -3 -3 -3 -3 -2 -2 -2 -2 -1 -1 -1 -0 0 0 0 0 0 0 0 0 0 0 0 0 0 0 1
6 6 6 6 6 7 7 7 7 7 6 6 5 5 4 4 4 4 4 3 3 2 1 1 -0 -0 1 2 2 2 1 -1 -1 -1 -2 -2 -2 -2 -2 -2 -2 -2 -3 -3 -3 -3 -3 -3 -3 -3 -3 -3 -3 -3 -3 -3 -3 -3 -3 -3 -3 -3 -2 -2 -2 -2 -1 -1 -1 -0 0 0 0 1 1 1 1 0 0 0 0 0 0 0 0
6 6 6 6 6 6 6 6 6 5 5 4 4 3 3 3 3 3 2 2 2 1 -0 -1 -1 -1 -0 1 2 1 -1 -2 -2 -2 -2 -2 -2 -2 -2 -2 -2 -3 -3 -3 -3 -3 -3 -3 -3 -3 -3 -3 -3 -3 -3 -3 -3 -3 -3 -3 -3 -3 -3 -2 -2 -2 -1 -1 -1 -0 0 0 1 1 1 1 1 0 0 0 0 0 0 0 0
6 6 6 5 5 5 5 5 5 4 4 3 2 2 2 2 1 -0 -0 -1 -1 -1 -2 -2 -2 -2 -2 -1 -1 -2 -3 -3 -3 -3 -3 -3 -2 -2 -2 -2 -2 -3 -3 -3 -3 -3 -3 -3 -3 -3 -3 -3 -3 -3 -3 -3 -3 -3 -3 -3 -3 -3 -3 -2 -2 -2 -2 -1 -1 -0 -0 -0 0 0 0 0 0 0 0 0 0 0 -0 0 0
5 5 5 4 4 3 3 3 3 2 2 1 0 -0 -0 -1 -2 -2 -2 -2 -3 -3 -3 -3 -3 -3 -3 -3 -3 -3 -3 -3 -3 -3 -3 -3 -3 -3 -2 -2 -2 -3 -2 -2 -3 -3 -3 -3 -3 -3 -3 -3 -3 -3 -3 -3 -3 -3 -3 -3 -3 -3 -2 -2 -2 -2 -1 -1 -1 -1 -1 -0 -0 -0 -0 -0 -0 -0 -0 -0 -0 -0 0 0 0
3 3 3 2 2 1 1 0 0 -0 -1 -1 -2 -2 -2 -2 -3 -3 -3 -3 -3 -3 -3 -3 -3 -3 -3 -4 -4 -4 -4 -3 -3 -3 -4 -4 -3 -3 -3 -3 -3 -3 -3 -3 -3 -3 -3 -3 -3 -3 -3 -3 -4 -3 -3 -3 -3 -3 -3 -3 -3 -2 -2 -2 -2 -2 -1 -1 -1 -1 -1 -1 -1 -1 -0 -0 -0 -0 -0 -0 -0 -0 -0 -0 -0
1 1 1 1 0 -0 -1 -1 -2 -2 -2 -2 -3 -3 -3 -3 -3 -4 -4 -4 -4 -4 -4 -4 -4 -4 -4 -4 -4 -4 -4 -4 -4 -4 -4 -4 -4 -3 -3 -3 -3 -3 -3 -3 -3 -3 -3 -3 -3 -3 -4 -4 -4 -4 -3 -3 -3 -3 -3 -3 -2 -2 -2 -1 -1 -1 -1 -1 -1 -1 -1 -1 -1 -1 -1 -1 -1 -1 -1 -1 -1 -1 -1 -0 -1
-0 -1 -1 -1 -1 -2 -2 -2 -2 -2 -3 -3 -3 -4 -4 -4 -4 -4 -4 -4 -4 -4 -4 -4 -4 -4 -4 -4 -4 -5 -5 -5 -5 -5 -5 -5 -5 -4 -3 -3 -3 -3 -3 -3 -3 -3 -3 -3 -3 -3 -3 -3 -4 -4 -3 -3 -3 -3 -3 -2 -2 -2 -2 -2 -1 -1 -1 -1 -1 -1 -1 -1 -1 -1 -1 -1 -1 -1 -1 -1 -1 -1 -1 -1 -1
-2 -2 -2 -2 -2 -2 -3 -3 -3 -3 -3 -3 -3 -4 -4 -4 -4 -4 -4 -4 -5 -5 -5 -5 -5 -5 -5 -5 -5 -5 -5 -5 -5 -5 -5 -5 -5 -5 -4 -3 -3 -3 -3 -3 -3 -3 -3 -3 -3 -3 -3 -3 -4 -4 -4 -3 -3 -3 -3 -2 -2 -2 -2 -1 -1 -1 -1 -1 -1 -1 -1 -1 -1 -1 -1 -1 -1 -1 -1 -1 -1 -1 -1 -1 -1
-2 -3 -3 -3 -3 -3 -3 -3 -3 -3 -3 -3 -3 -4 -4 -4 -4 -5 -5 -5 -5 -5 -5 -5 -5 -5 -5 -6 -6 -6 -6 -6 -6 -6 -6 -6 -6 -5 -4 -4 -3 -3 -3 -3 -3 -3 -3 -3 -3 -3 -3 -3 -4 -4 -3 -3 -3 -3 -3 -2 -2 -2 -2 -1 -1 -1 -1 -1 -1 -1 -1 -1 -1 -1 -1 -1 -1 -1 -1 -1 -1 -1 -1 -1 -1
-3 -3 -3 -3 -3 -3 -3 -3 -3 -3 -3 -3 -3 -4 -4 -4 -4 -5 -5 -5 -5 -5 -5 -6 -6 -6 -6 -6 -6 -6 -6 -6 -6 -6 -6 -6 -6 -6 -5 -5 -4 -3 -3 -3 -3 -3 -3 -3 -3 -3 -3 -4 -4 -3 -3 -3 -3 -3 -2 -2 -2 -2 -2 -1 -1 -1 -1 -1 -1 -1 -1 -1 -2 -2 -1 -1 -1 -1 -1 -1 -1 -1 -1 -1 -1
Height
789 790 791 793 795 796 797 798 799 801 802 803 804 805 806 807 809 810 812 813 815 816 817 818 819 820 821 822 823 824 825 826 827 827 828 829 829 830 830 831 831 831 831 832 832 832 832 832 832 832 832 832 831 831 831 831 830 830 830 829 829 828 827 827 823 817 816 817 815 814 814 813 812 812 811 810 809 808 807 807 806 806 805 805 804
788 789 790 791 792 793 793 794 796 797 798 800 801 802 803 804 806 807 809 810 812 813 815 816 817 818 819 820 821 822 823 824 825 826 827 827 828 828 829 830 830 830 831 831 831 831 831 830 830 830 830 829 829 829 829 829 828 828 828 827 827 827 826 825 822 818 814 814 814 813 813 812 811 810 809 808 807 806 806 805 804 804 803 802 802
787 788 788 789 789 790 791 792 793 794 795 796 797 798 800 801 802 804 806 807 809 810 812 813 815 816 817 818 819 820 821 822 823 824 825 826 826 827 828 828 829 829 829 830 830 830 829 829 829 829 828 828 827 827 827 827 827 826 826 825 825 824 824 824 822 818 814 813 813 812 811 810 809 808 808 806 805 804 804 803 802 801 801 800 799
787 787 787 787 788 789 789 790 791 792 793 793 794 796 797 799 800 801 802 804 806 808 809 811 812 813 814 816 817 818 819 820 821 822 823 824 825 825 826 826 827 827 828 828 828 828 828 828 828 827 827 826 826 826 825 825 825 824 824 823 823 822 822 822 820 818 815 812 811 810 809 808 807 806 805 804 803 802 801 800 799 798 798 797 797
785 786 786 786 786 787 787 788 789 789 790 791 792 793 795 796 797 798 799 801 803 805 807 809 810 810 811 813 814 815 817 818 819 820 821 822 823 824 824 825 826 826 826 827 827 827 827 827 826 826 825 825 825 824 824 824 823 823 822 821 821 820 820 819 819 817 815 811 809 808 808 806 805 804 803 802 800 799 798 797 796 795 794 794 794
785 785 786 785 785 785 785 786 786 787 787 788 789 791 793 794 794 795 797 798 800 803 805 806 806 807 809 810 812 813 814 815 817 818 819 820 821 822 823 824 824 825 825 825 825 825 825 825 825 824 824 823 823 823 822 822 822 821 820 819 819 818 818 817 817 816 814 811 808 806 806 805 803 802 801 801 799 797 795 794 793 792 791 791 790
784 784 785 785 785 785 784 784 785 785 785 785 787 789 790 790 791 792 793 795 797 800 802 803 804 806 807 808 810 810 811 813 814 815 816 817 819 820 821 822 823 823 823 824 824 824 823 823 823 823 822 822 821 821 821 820 820 819 818 818 817 817 816 815 815 814 812 810 808 805 804 803 801 800 799 799 798 796 794 792 790 789 789 788 788
784 784 785 785 785 785 784 783 783 783 783 784 785 785 786 787 788 790 792 795 796 797 799 802 804 805 806 807 807 809 810 811 812 813 814 815 816 817 818 820 820 821 821 821 822 822 822 821 821 821 820 820 819 819 818 818 817 817 816 816 815 815 814 813 812 811 810 808 806 804 802 800 799 798 797 796 796 795 794 792 789 788 787 786 785
784 784 784 784 784 783 783 782 781 782 782 782 782 782 783 784 785 787 789 792 793 794 797 800 802 803 804 804 805 806 808 809 810 811 812 813 815 816 816 817 818 819 819 820 820 820 820 820 819 818 818 817 816 815 815 815 815 814 813 813 813 812 812 811 810 808 807 805 803 802 800 798 797 796 794 794 793 792 792 791 789 787 786 784 783
782 782 782 782 782 781 781 780 779 780 780 780 780 780 780 781 782 783 784 786 788 790 793 795 796 797 799 800 801 802 804 806 807 808 810 811 813 814 815 816 816 816 817 817 818 818 818 817 816 815 814 813 812 811 811 811 811 811 810 810 810 809 809 808 807 805 804 802 801 800 798 796 795 794 793 791 791 791 791 790 788 787 785 782 780
780 780 780 780 780 779 779 778 778 777 778 778 778 778 779 779 780 781 782 784 785 786 787 789 790 792 794 797 798 800 801 803 805 806 808 809 811 812 813 814 814 815 815 815 815 815 815 814 813 812 811 809 808 807 806 806 806 806 806 806 806 806 805 804 803 802 801 799 798 797 795 793 792 792 791 790 789 789 788 788 787 786 784 782 779
779 778 779 779 778 778 777 776 775 775 775 775 775 776 777 777 778 779 780 781 782 783 785 786 787 789 792 795 797 799 800 802 803 805 806 808 809 810 811 812 812 813 813 813 812 812 812 811 810 809 808 806 805 804 803 802 801 801 801 801 801 801 801 800 799 798 797 795 794 793 791 790 789 789 789 788 787 787 786 786 785 784 783 781 779
777 777 776 776 776 776 775 774 773 772 772 773 773 773 774 775 776 776 777 778 779 781 782 783 785 787 790 793 796 798 800 802 803 804 805 806 807 808 809 810 810 810 810 810 810 809 809 808 807 805 804 803 802 801 800 798 798 797 797 797 796 795 795 795 795 795 794 792 790 788 788 788 786 786 787 786 786 785 784 783 782 781 780 779 777
775 775 774 773 773 772 772 771 770 770 770 770 771 771 771 772 773 774 774 776 777 778 780 782 784 786 789 792 795 797 800 802 802 803 804 805 805 806 807 807 807 808 808 807 806 806 805 805 803 802 801 800 799 798 797 796 795 794 793 792 792 791 790 790 790 789 789 788 786 784 784 785 783 783 784 784 783 783 781 780 779 778 777 776 775
773 772 771 771 770 770 769 769 768 768 768 768 768 769 769 769 770 771 772 773 774 776 777 779 782 784 787 790 793 796 799 801 801 802 803 803 804 805 805 805 805 805 804 803 803 803 802 801 800 799 798 797 796 795 794 793 791 790 790 789 788 787 786 786 785 784 784 783 782 780 780 781 780 780 781 781 780 780 779 778 777 776 775 773 771
771 770 769 768 768 768 768 767 766 765 765 765 766 766 766 766 767 768 769 770 772 773 775 777 780 782 786 789 792 795 798 800 800 801 801 802 803 803 803 803 802 802 801 800 800 799 799 798 797 795 794 793 792 791 790 790 788 787 786 784 783 782 781 781 781 780 779 778 777 777 776 776 776 776 777 777 777 777 777 775 774 773 772 769 767
769 768 767 767 766 766 766 765 764 763 763 763 763 763 763 763 764 765 766 767 770 771 773 776 778 781 784 788 791 794 797 799 799 800 800 801 801 801 801 800 800 799 798 797 797 796 795 794 793 792 790 789 789 788 787 786 785 784 782 781 779 778 777 777 776 775 774 773 773 772 771 771 772 771 772 773 773 775 775 771 769 770 768 765 762
767 766 765 765 764 764 763 762 762 761 760 760 760 760 761 761 761 762 764 765 768 770 773 775 778 782 786 789 791 793 796 798 799 799 800 800 800 800 800 798 797 796 796 795 794 793 791 790 789 788 787 786 786 785 784 783 782 780 779 777 776 774 774 773 772 771 770 769 768 767 766 766 766 766 767 767 768 771 770 766 766 767 763 760 759
764 763 762 761 761 760 760 759 759 759 758 757 757 757 758 759 759 760 762 765 767 770 772 774 779 783 786 789 792 793 795 797 798 798 799 799 799 799 798 797 796 795 794 793 792 790 789 787 786 785 784 783 782 781 781 780 778 777 775 774 771 770 770 770 768 767 766 764 763 762 761 761 761 761 761 761 762 763 763 761 762 762 757 755 755
761 760 759 758 757 757 757 756 756 755 755 754 754 755 755 756 757 758 761 764 767 770 772 774 778 782 785 788 791 793 795 796 797 797 797 798 798 798 797 796 795 793 793 791 789 788 786 785 784 782 780 779 778 777 777 776 775 773 771 770 767 766 767 766 765 764 762 761 759 759 757 757 757 756 755 755 755 755 755 755 755 755 752 751 751
757 756 755 755 754 754 753 753 752 752 752 751 752 752 752 754 755 757 760 763 766 770 773 775 778 781 784 787 790 792 793 794 794 795 795 796 797 796 795 794 793 792 790 789 787 785 783 782 780 779 777 776 775 774 773 772 771 769 767 765 763 763 763 762 761 760 759 757 755 754 753 752 752 751 750 750 750 749 749 749 749 748 747 746 745
753 752 751 751 750 750 750 749 749 748 748 748 749 750 751 753 755 757 759 762 766 770 773 776 779 781 783 785 788 790 792 792 792 792 793 795 795 795 794 793 791 790 788 786 784 782 780 779 777 775 774 772 771 770 768 767 766 763 761 759 758 759 759 758 757 756 754 753 751 749 748 748 747 746 745 745 744 744 744 743 743 743 742 741 740
749 748 747 747 746 746 746 746 745 744 745 746 747 749 751 753 755 757 759 762 765 769 773 777 779 780 782 784 787 789 790 791 790 790 791 792 793 792 791 790 789 788 786 784 782 779 777 775 773 772 770 768 766 764 762 761 760 757 755 754 754 754 754 753 752 751 749 748 746 744 743 743 742 740 740 739 739 739 738 738 738 737 737 736 736
745 744 743 742 742 742 741 742 742 741 742 744 746 749 751 753 755 757 759 761 764 769 773 776 779 781 782 784 787 788 789 790 789 789 790 790 790 790 789 787 786 785 783 781 778 776 774 772 770 768 766 763 761 759 757 756 754 752 751 750 750 750 749 747 746 745 743 742 741 739 737 737 736 735 735 735 735 734 734 734 733 733 732 732 731
741 740 739 738 738 738 738 739 739 739 740 743 746 749 751 754 756 758 760 762 765 769 773 776 779 780 781 784 787 788 789 789 789 788 788 788 788 787 785 784 782 781 779 777 775 773 770 768 766 764 761 759 756 754 752 750 749 747 746 746 745 744 743 741 740 739 737 736 735 733 732 731 730 730 730 730 731 730 730 730 729 729 728 728 727
737 736 735 735 735 735 736 737 738 739 741 743 746 750 752 755 757 759 761 764 767 770 773 776 778 780 782 784 786 788 788 788 788 788 787 786 785 784 782 780 779 777 776 773 771 769 767 765 762 760 757 755 752 750 748 746 744 743 742 741 740 738 737 736 735 733 732 730 729 728 727 726 726 725 726 726 725 725 725 725 725 724 724 724 724
733 732 732 732 732 733 735 737 739 741 743 746 749 752 755 757 759 761 763 765 768 771 774 776 778 781 782 784 786 787 787 787 787 787 786 785 784 782 780 779 777 775 773 771 768 766 763 761 758 756 753 751 748 746 744 742 740 739 737 736 735 733 732 731 730 729 727 725 724 723 722 721 721 721 721 720 720 720 720 721 720 720 720 721 720
729 729 730 730 732 734 735 737 739 742 745 748 752 755 757 758 760 762 764 765 768 771 774 776 778 780 782 784 785 786 786 786 786 785 785 783 782 780 779 777 775 773 771 769 766 763 760 758 755 752 750 748 745 743 741 739 737 735 734 732 731 730 728 727 725 724 722 721 720 718 717 716 716 715 715 715 715 714 715 716 716 716 717 717 716
727 728 729 731 734 736 738 740 743 744 746 750 754 757 759 760 761 763 765 767 769 772 774 776 778 780 782 783 784 785 785 785 785 784 783 782 780 778 777 775 773 771 769 766 763 760 758 755 753 750 748 745 743 741 738 736 734 732 731 729 727 726 724 722 720 718 717 716 714 713 712 711 710 710 710 710 709 709 710 711 712 712 713 713 712
728 730 732 734 737 740 742 744 747 748 749 752 755 758 760 762 763 764 767 770 772 773 775 776 778 780 781 782 783 784 784 784 784 782 781 779 778 776 774 772 770 768 766 763 761 758 756 754 751 749 747 744 741 739 736 734 732 729 727 725 723 721 719 717 715 714 712 711 709 708 707 706 705 704 705 704 703 704 705 706 707 708 708 708 708
731 734 737 738 740 743 745 747 749 750 752 755 757 759 761 764 766 767 769 771 773 775 776 777 779 780 781 782 782 783 783 783 782 780 779 777 775 774 772 770 768 766 763 761 759 757 755 752 750 748 745 743 740 737 734 732 729 726 723 721 719 717 715 713 711 709 708 706 704 703 701 700 699 699 699 698 698 699 700 701 702 703 703 703 703
735 739 741 743 744 746 747 749 751 753 755 757 759 760 762 764 767 770 771 773 774 775 776 778 779 780 780 781 781 782 782 781 780 778 777 775 773 771 769 767 765 763 761 759 757 755 753 751 749 746 744 741 738 735 732 729 726 723 720 718 715 714 712 709 707 706 703 701 700 698 696 695 693 693 692 693 693 694 695 696 696 697 697 698 698
741 743 745 746 748 750 751 752 754 755 757 759 761 763 764 766 768 770 772 774 775 776 777 778 779 779 780 780 780 781 780 779 778 777 775 773 771 769 767 765 763 761 759 758 756 754 752 750 747 745 742 739 736 733 730 727 723 721 718 715 713 710 708 705 703 701 698 696 694 692 690 689 688 687 687 687 688 689 689 690 691 692 693 693 693
746 748 749 750 752 753 754 755 757 758 760 761 763 765 766 767 769 771 772 774 775 776 777 778 779 779 779 779 779 779 779 778 777 776 774 772 770 767 765 763 761 760 758 757 755 753 751 748 746 743 740 737 734 731 728 725 722 719 716 713 710 707 704 701 698 696 693 691 689 687 685 684 683 682 682 682 683 684 684 685 686 687 688 688 689
750 751 752 753 754 755 756 757 759 760 762 763 765 766 768 769 770 771 772 773 775 776 777 778 778 778 778 778 779 778 778 777 776 774 773 770 768 765 764 762 761 759 758 756 754 752 750 747 745 742 739 735 732 729 726 723 720 716 713 710 706 703 700 697 694 691 688 686 684 682 680 679 677 677 677 677 678 679 680 681 682 682 683 684 685
752 753 754 755 755 756 757 758 760 762 763 765 766 768 769 770 771 772 772 773 775 776 777 777 778 778 778 778 778 777 777 776 775 773 771 769 766 765 763 762 760 759 757 756 754 751 749 746 743 740 737 734 731 728 724 721 717 714 710 707 703 700 696 693 690 687 684 681 679 677 675 674 673 672 673 673 674 675 676 677 678 678 680 681 682
752 753 754 755 756 757 758 760 761 763 764 766 767 769 769 770 771 772 773 773 774 775 776 776 777 777 777 777 777 776 776 775 774 772 770 768 766 765 764 762 760 759 757 755 753 750 748 745 742 739 736 732 729 725 722 718 714 711 707 704 700 696 693 690 686 683 680 677 674 672 670 669 668 668 669 669 670 671 672 673 675 676 677 678 680
752 753 754 756 757 758 759 761 763 764 766 767 768 769 770 770 771 772 772 773 773 774 775 776 776 777 777 776 776 775 774 773 772 771 769 768 767 766 764 762 760 758 756 754 752 750 746 743 740 737 734 730 727 723 719 716 712 708 704 701 697 693 690 686 683 679 676 673 670 667 665 664 664 664 665 666 667 668 669 670 672 673 674 676 677
752 753 755 757 758 759 760 762 764 765 766 768 769 769 770 770 771 771 772 772 773 774 775 775 776 776 775 775 774 773 773 772 771 771 770 769 768 766 764 762 760 758 756 754 751 748 745 742 739 735 732 729 725 721 718 714 710 706 702 699 694 691 687 683 680 676 673 670 667 663 661 661 661 661 662 663 664 665 667 668 669 671 672 674 675
751 753 755 757 759 760 761 763 764 766 767 768 769 769 769 769 770 770 771 772 773 774 775 775 775 775 775 774 773 772 772 772 771 771 770 769 768 766 764 762 760 757 755 753 750 747 744 741 738 734 731 727 724 720 716 713 709 704 701 697 693 689 685 681 678 674 670 667 664 661 659 659 659 660 661 661 662 663 665 666 667 668 670 671 673
752 754 756 758 759 760 761 763 765 766 767 768 768 768 769 769 770 771 772 772 773 774 774 775 775 775 774 773 772 772 772 772 771 771 770 769 767 766 764 762 760 757 755 752 749 747 744 741 737 734 730 727 723 719 715 711 707 703 699 695 691 687 683 680 676 672 668 665 662 660 658 658 658 659 660 660 661 662 663 665 666 667 668 670 671
754 755 756 758 759 760 762 763 765 766 767 768 768 768 769 770 771 772 772 773 774 774 774 775 775 774 774 773 772 771 771 771 771 770 769 768 767 765 763 762 760 757 754 752 749 747 744 740 737 734 730 726 722 718 714 710 706 702 698 694 690 686 682 678 675 671 668 665 662 660 658 658 658 659 659 660 660 661 662 663 664 665 667 669 670
756 756 757 758 759 761 762 764 765 767 767 768 769 769 770 771 772 772 773 773 774 775 775 775 775 774 773 772 771 771 771 771 770 769 769 768 767 765 763 762 759 757 754 752 750 747 744 740 737 734 730 726 722 718 714 710 706 702 697 693 689 685 681 677 674 671 668 665 663 660 659 659 659 659 659 659 660 661 662 663 664 665 666 668 670
757 757 758 759 761 762 763 765 766 767 768 769 770 771 771 772 772 773 773 774 775 775 776 775 774 773 773 772 771 771 771 771 770 769 768 767 766 765 763 761 759 757 755 752 750 747 744 740 737 733 729 726 722 718 714 710 706 702 697 693 689 685 681 677 674 671 669 666 664 662 660 660 660 660 660 660 661 661 662 663 664 666 667 669 672
758 759 760 761 762 764 765 766 767 768 770 771 772 772 772 773 773 774 775 775 776 776 776 775 774 773 773 772 772 771 771 771 770 769 768 766 765 764 763 761 759 757 755 752 750 747 744 741 737 733 729 725 722 718 714 710 706 701 697 693 689 685 681 678 675 672 669 667 665 663 662 661 661 661 661 662 662 663 664 665 666 667 669 671 673
760 761 762 763 764 766 767 768 769 771 772 773 774 774 774 775 775 776 776 777 777 777 776 775 775 774 773 773 772 772 772 771 770 769 767 766 765 764 762 760 759 757 755 753 750 747 744 741 738 734 730 726 722 718 714 710 706 701 697 694 690 686 682 679 676 673 671 668 667 665 664 663 663 663 663 664 664 665 666 667 669 670 672 674 676
763 764 765 766 767 768 769 770 772 773 774 775 776 776 776 776 777 777 777 777 777 777 776 776 775 774 774 773 772 772 772 771 770 769 767 766 764 763 762 760 758 756 755 753 750 747 745 741 738 734 731 727 723 719 715 710 706 702 698 694 691 687 683 680 677 675 672 670 669 667 666 666 666 666 666 667 667 668 669 671 672 674 676 677 680
766 767 768 769 769 770 772 773 774 775 776 776 777 778 778 778 778 778 778 778 778 777 777 776 776 775 774 773 772 772 771 771 770 769 767 765 764 763 761 760 758 756 755 752 750 748 745 742 739 735 731 728 724 720 716 712 708 704 700 696 693 689 686 682 679 677 675 673 671 670 669 669 669 669 670 670 671 671 673 674 676 677 679 681 683
769 770 770 771 772 773 774 775 776 777 778 778 779 779 779 779 779 779 779 779 779 778 777 777 776 776 775 773 772 772 771 771 770 769 767 765 764 762 761 760 758 757 755 753 751 748 746 743 740 736 733 729 726 722 718 714 710 706 702 699 695 692 688 685 682 680 678 676 674 673 672 672 672 673 673 674 674 675 676 678 679 681 683 685 688
772 773 773 774 775 776 777 778 778 779 780 780 780 780 780 780 780 780 780 780 780 779 778 778 777 776 775 773 772 772 771 771 770 769 767 766 764 762 761 759 758 757 755 753 751 749 746 744 741 738 734 731 727 724 720 716 713 709 705 702 698 695 691 688 686 684 681 680 678 677 676 676 676 677 677 678 679 679 681 682 684 686 687 689 692
775 776 776 777 778 778 779 780 781 781 782 782 782 782 782 782 782 782 782 782 781 780 779 779 778 777 775 774 773 772 771 771 770 769 767 766 764 762 761 759 758 757 756 754 752 750 748 745 743 740 736 733 730 726 722 719 715 712 708 705 701 698 695 692 690 688 686 684 683 681 681 681 681 681 682 683 683 684 686 687 688 690 692 694 697
Wind_Speed
27 27 28 28 28 28 29 30 30 30 30 31 30 29 28 27 26 24 22 21 20 20 19 18 17 17 17 16 13 11 9 9 8 6 5 4 4 3 2 2 2 1 1 1 2 3 3 4 5 5 5 5 5 6 6 5 6 6 7 7 8 8 9 12 13 14 14 12 13 15 13 14 15 14 14 15 15 16 18 18 17 16 15 14 16
26 27 28 28 28 30 31 31 31 31 31 32 32 32 31 30 29 26 24 23 21 21 21 20 19 18 18 17 15 12 11 10 9 7 6 5 4 3 3 3 2 1 1 2 3 4 5 6 6 7 6 6 6 7 7 6 6 7 7 8 9 9 10 12 14 15 15 12 12 14 13 13 15 15 14 15 15 16 18 19 18 15 14 14 15
22 24 26 27 28 30 31 32 32 32 32 32 34 34 33 32 31 29 26 25 23 23 23 22 20 20 20 18 16 14 13 11 9 8 7 6 6 4 4 4 3 2 1 1 2 4 5 6 7 8 8 8 8 8 8 7 7 8 8 8 9 10 11 12 14 16 18 16 13 13 13 12 14 15 14 15 16 17 18 19 19 18 17 16 15
17 19 22 25 27 28 30 31 32 31 31 32 33 34 33 32 32 30 28 26 25 24 24 23 22 22 21 20 18 15 14 12 10 9 8 7 6 6 5 4 4 2 1 1 3 4 5 6 7 8 8 9 9 8 8 8 8 9 9 9 9 10 11 12 14 16 18 19 16 14 14 14 15 15 15 15 16 17 18 19 20 21 20 18 17
10 14 18 21 24 26 28 29 30 29 29 30 32 33 33 31 31 30 28 27 26 26 25 25 24 24 23 21 19 16 14 12 11 9 8 7 6 6 5 4 3 2 2 3 4 5 6 7 8 8 9 9 10 9 9 10 10 10 11 11 10 10 11 12 14 15 18 20 19 17 16 16 16 15 15 15 16 15 15 17 19 19 20 21 20
4 6 12 16 20 23 26 27 28 28 29 30 31 32 31 31 31 30 28 27 26 26 27 27 27 26 25 22 19 16 14 13 12 10 9 7 6 6 5 3 2 2 4 5 6 7 8 9 9 9 10 10 11 11 11 11 12 12 12 13 13 12 13 14 15 15 17 20 21 20 17 16 16 16 15 14 15 16 16 16 16 16 17 19 18
12 7 5 10 15 18 22 25 27 28 28 29 30 30 31 32 30 27 26 25 24 25 27 29 29 27 25 22 19 17 15 14 12 11 9 8 7 6 5 3 3 4 6 7 8 9 9 9 10 10 11 11 12 12 12 12 12 13 13 13 13 14 15 15 16 17 18 19 20 20 18 16 15 16 15 13 15 17 16 15 15 13 12 13 14
16 12 7 5 9 13 17 20 22 25 26 27 26 27 28 27 24 21 20 21 22 25 28 30 29 26 25 22 19 16 15 15 13 11 10 9 8 7 5 4 4 5 6 7 8 9 9 10 11 11 11 12 13 13 14 13 13 14 14 13 14 15 16 16 17 18 19 20 19 19 18 17 15 15 14 13 14 14 13 13 14 14 13 13 14
16 14 11 8 7 9 12 14 17 19 22 24 25 25 24 22 20 20 20 20 23 26 27 28 28 27 24 22 19 18 17 16 14 12 11 10 8 7 5 4 3 3 4 6 7 9 10 12 13 14 15 15 16 17 17 18 18 17 16 15 15 17 17 18 18 17 18 19 19 18 18 17 16 15 14 12 12 13 13 14 15 16 15 15 15
17 15 14 12 11 10 10 12 13 15 18 21 23 24 24 23 23 24 24 24 25 27 29 30 31 30 28 25 23 22 21 18 15 13 11 10 8 6 4 3 2 2 3 5 8 10 12 14 16 18 19 19 18 18 19 20 21 21 21 19 18 18 19 19 19 19 19 19 18 18 18 18 16 16 16 14 13 13 15 15 15 15 15 15 14
17 16 14 14 14 13 13 12 12 13 14 17 20 23 24 25 25 25 24 24 27 29 32 34 34 33 30 27 25 24 22 18 15 13 12 10 8 5 4 2 2 3 5 7 9 11 13 15 16 17 18 18 17 17 19 20 21 22 23 23 22 22 21 21 21 20 21 21 21 20 20 19 18 17 17 16 14 14 14 14 14 14 14 14 12
16 14 14 13 13 13 14 14 14 13 13 15 19 21 22 24 25 24 25 26 29 32 35 36 35 32 30 27 25 23 20 18 16 13 11 9 7 5 3 1 2 4 6 8 11 12 14 15 15 15 16 18 18 18 18 20 20 21 22 23 24 25 25 26 24 22 21 21 22 22 22 21 20 18 17 17 17 17 16 16 15 15 14 14 13
15 14 13 13 12 13 13 14 15 14 13 14 17 19 21 22 23 25 27 28 30 34 36 36 34 32 29 27 24 22 19 17 15 12 10 9 6 4 2 2 4 5 8 10 12 13 14 14 15 15 15 17 18 17 17 17 18 20 21 22 24 25 26 28 29 28 27 25 25 24 23 22 22 20 19 19 19 19 19 18 17 16 16 16 15
14 14 15 15 15 14 13 14 15 15 14 13 14 17 20 22 24 26 28 29 31 35 36 35 33 31 29 27 24 21 19 16 14 12 11 8 5 2 1 4 6 8 10 12 13 13 14 15 15 15 16 16 16 16 16 16 17 18 19 20 21 22 23 25 27 29 30 30 31 30 26 25 26 25 22 22 21 21 21 20 19 19 19 19 18
15 15 16 18 17 16 14 14 15 15 14 13 13 16 19 22 25 26 28 29 32 36 36 35 33 31 29 26 24 21 19 16 14 12 10 7 4 2 4 7 9 10 12 14 14 14 14 15 16 16 16 16 16 16 16 16 18 19 20 21 22 22 23 24 24 25 27 28 29 30 28 27 27 26 25 23 23 23 22 22 22 21 22 22 22
16 17 18 17 17 16 15 15 15 16 15 13 13 16 18 21 25 26 27 29 32 35 36 35 34 32 29 26 24 21 18 15 13 11 8 4 2 3 6 8 10 12 13 15 15 15 15 16 16 16 16 16 16 17 18 18 19 21 22 22 23 23 23 23 23 25 26 27 28 29 29 29 28 27 26 25 24 23 21 23 23 21 21 22 21
17 17 17 16 15 15 15 15 16 16 15 14 14 16 18 21 25 27 27 29 31 33 34 34 33 31 28 25 23 21 18 15 12 8 5 2 4 6 8 9 10 13 14 15 16 16 17 19 19 17 17 17 16 17 18 18 19 21 23 24 24 24 23 22 23 24 26 27 29 30 32 33 33 32 32 31 30 27 24 25 23 21 21 19 17
17 17 16 16 16 16 16 16 16 17 17 15 15 17 17 19 24 27 27 28 29 30 31 30 28 27 25 23 21 19 16 13 8 4 2 4 7 8 9 9 11 13 14 14 15 15 17 20 19 17 17 18 18 19 19 20 21 22 23 24 25 25 23 21 22 23 24 25 27 28 29 31 32 34 35 35 35 33 31 29 25 23 24 21 18
17 17 18 18 18 18 17 18 17 17 17 17 16 17 16 17 22 25 25 25 25 26 28 27 25 23 22 20 17 14 12 9 5 2 3 5 9 10 10 10 12 14 14 15 16 16 15 16 17 17 19 20 20 21 21 21 22 23 24 25 26 26 23 21 22 22 22 24 24 25 26 26 27 29 30 31 33 34 35 33 29 27 27 25 22
19 19 20 19 18 18 18 18 18 19 19 18 16 16 17 19 22 22 22 23 23 24 26 27 25 23 20 17 13 10 7 4 2 3 4 7 10 12 12 12 13 15 16 16 17 17 16 17 17 18 20 22 22 23 23 22 23 24 25 26 27 26 23 22 23 23 24 25 25 25 26 26 25 26 26 26 27 29 31 33 32 31 30 28 25
22 22 21 20 19 19 19 18 19 20 19 17 17 17 19 21 22 23 24 25 25 25 26 25 24 21 18 15 11 7 3 1 2 4 7 9 12 15 15 14 15 17 17 17 18 19 20 20 20 20 20 21 23 24 24 25 25 26 26 27 29 28 27 27 28 27 28 29 28 27 27 26 26 27 26 26 26 25 26 28 30 33 33 31 28
23 22 21 20 20 20 20 20 20 19 16 16 17 18 19 21 23 25 28 29 29 28 25 23 21 19 16 12 8 5 2 1 3 5 8 10 12 15 16 17 19 19 18 19 21 22 22 21 21 20 21 22 24 26 28 29 29 28 29 30 31 32 32 31 30 29 28 28 28 27 27 27 26 26 25 25 25 25 25 26 28 30 32 33 31
23 22 22 22 21 21 21 20 19 16 15 16 18 19 21 23 26 30 32 33 31 27 23 21 19 17 14 11 6 3 0 2 4 6 8 11 13 15 17 20 22 20 19 20 23 23 22 21 21 22 23 26 28 30 31 31 30 29 30 32 33 34 33 31 30 29 28 27 27 27 27 27 27 26 25 25 25 26 27 27 28 29 30 32 33
23 23 23 23 22 21 19 17 15 15 16 18 20 22 25 28 30 32 32 31 28 26 22 19 17 15 12 8 4 1 2 4 5 7 9 11 14 16 19 21 23 22 20 20 22 21 21 22 23 25 28 30 31 31 31 31 29 29 30 31 32 32 31 29 28 27 26 26 26 27 27 27 27 28 27 25 24 25 25 26 26 27 29 29 30
24 24 23 22 21 18 15 13 13 17 20 22 25 27 30 32 32 31 30 28 26 25 22 18 15 13 9 6 3 2 3 5 6 8 10 13 16 19 22 23 23 21 19 19 20 21 23 24 26 27 28 29 29 28 27 26 26 27 28 29 28 27 26 25 25 24 24 25 26 27 28 27 27 28 27 26 25 24 24 24 25 25 26 27 28
23 23 22 19 16 12 11 12 15 19 23 26 30 32 32 32 30 29 28 26 23 21 19 17 14 11 8 5 3 3 4 5 6 8 10 14 17 19 21 21 19 18 19 19 20 22 23 24 25 26 25 25 25 24 23 23 23 24 25 25 23 22 22 22 23 23 24 25 25 27 28 27 26 26 26 26 27 26 24 23 23 24 24 24 25
23 22 19 13 10 13 17 20 23 25 28 30 31 30 30 30 29 27 26 25 22 20 18 15 12 9 6 5 3 3 3 4 6 8 10 12 14 16 16 17 18 18 18 18 19 21 22 22 23 23 22 22 21 21 22 22 21 21 20 19 19 19 20 21 22 24 25 25 25 26 27 27 26 26 26 26 27 26 24 23 23 22 22 22 23
18 14 10 12 17 21 25 28 30 30 31 31 29 28 28 28 27 25 24 23 22 20 17 14 11 8 6 5 3 1 2 4 6 9 12 14 15 15 14 15 16 17 17 18 20 20 20 20 19 19 19 19 19 19 19 19 19 19 19 19 20 21 22 23 25 27 27 27 26 27 27 27 26 26 26 25 26 25 24 23 23 23 22 21 21
9 13 19 23 24 26 27 28 27 28 29 29 26 24 25 24 24 23 21 19 18 19 17 15 12 10 8 6 3 1 3 4 7 11 14 16 16 15 14 15 15 15 16 18 19 19 17 17 17 17 18 18 19 19 19 19 19 19 19 20 20 21 21 22 25 26 27 27 28 29 29 28 28 28 27 26 27 27 25 25 24 23 22 22 21
22 23 25 25 25 25 26 26 26 26 27 26 24 23 23 22 22 23 21 19 18 17 15 14 12 9 6 4 3 3 3 5 9 13 15 15 15 15 15 15 14 14 16 17 17 15 15 16 16 17 18 19 19 19 20 20 20 20 20 20 20 20 21 22 24 25 26 26 27 29 29 28 28 28 28 27 28 28 27 28 28 26 24 23 22
27 25 24 24 25 25 26 27 27 26 26 26 25 25 24 23 22 22 21 19 16 14 11 9 7 5 4 3 4 4 5 8 11 14 14 14 14 15 15 14 13 14 15 15 14 13 14 15 17 18 18 19 20 20 21 21 21 21 21 21 20 20 21 22 23 24 24 24 25 26 28 28 28 27 27 27 27 27 26 27 28 28 27 26 24
27 24 23 24 26 27 27 26 25 25 25 25 25 25 25 23 20 18 16 14 12 10 8 7 5 4 4 4 5 4 7 10 12 14 14 14 14 16 15 14 13 15 15 13 12 13 14 15 17 18 19 20 20 21 21 21 21 22 22 22 21 21 21 22 24 25 24 24 24 24 25 26 27 27 27 27 26 25 24 24 25 26 26 25 24
25 24 24 25 24 23 24 24 24 25 25 24 24 23 23 21 18 14 13 11 10 9 9 7 6 6 5 5 5 5 7 11 13 14 14 14 15 16 16 14 14 15 15 13 13 14 15 16 17 19 20 20 21 21 21 22 22 22 22 22 22 22 23 24 25 26 25 25 25 25 26 26 25 24 24 25 24 22 21 21 22 23 23 22 22
19 19 19 19 18 18 22 24 24 24 25 24 23 22 20 19 17 15 13 12 11 11 11 9 7 6 5 5 5 5 8 11 13 14 14 15 16 15 14 13 13 14 14 13 14 15 16 17 18 19 19 20 21 21 22 22 22 23 23 23 23 24 25 24 24 24 24 24 24 24 25 25 24 22 20 20 20 20 20 20 20 21 21 21 20
9 9 10 12 14 19 23 25 25 25 25 24 22 20 18 17 16 14 12 12 11 11 10 9 8 7 6 5 4 4 7 10 13 14 14 16 16 15 14 13 14 15 15 15 15 16 17 18 19 19 19 20 21 21 22 22 23 23 23 24 24 24 24 24 23 23 23 23 23 23 24 24 24 22 20 19 19 19 19 19 19 20 20 19 18
7 7 6 9 14 19 24 25 25 25 24 21 20 18 16 15 14 13 12 11 11 11 10 9 8 7 5 4 3 4 6 9 12 14 15 17 17 14 13 13 14 15 15 16 16 17 17 18 19 19 19 20 21 21 22 22 23 23 23 24 24 24 23 23 23 23 23 23 23 23 24 24 22 21 21 20 20 19 18 18 18 19 19 17 16
9 9 8 9 13 18 22 24 23 22 21 19 17 15 14 12 11 11 11 11 11 10 9 8 7 6 4 3 2 4 6 8 11 14 16 16 15 13 12 12 13 14 15 16 17 18 19 19 19 19 19 20 21 22 22 23 23 23 23 24 23 23 23 24 25 25 25 24 24 23 23 23 22 21 19 18 17 17 17 17 17 17 18 18 18
8 9 10 12 14 18 22 22 21 20 18 16 14 12 11 10 9 10 11 12 12 10 8 7 5 4 2 1 4 6 7 8 11 14 14 13 13 12 12 12 13 14 15 16 17 18 19 19 19 20 20 19 21 22 23 24 24 23 24 24 24 24 24 24 24 24 23 22 22 21 20 19 19 19 18 17 16 16 16 17 16 15 15 17 17
7 8 10 12 15 18 21 21 19 17 15 13 11 10 8 7 7 8 10 11 10 8 7 5 4 3 2 2 5 7 7 7 9 10 10 11 11 12 12 13 14 15 15 16 17 17 18 19 19 20 20 20 21 23 24 24 24 23 23 24 23 23 23 22 22 22 20 20 20 18 15 13 14 16 17 17 16 15 15 15 16 15 14 15 15
7 8 10 14 16 18 18 18 16 14 12 10 9 8 6 5 6 9 10 10 9 7 5 4 3 2 2 3 5 6 6 5 6 7 8 9 10 11 12 13 15 15 16 17 17 18 18 19 19 20 21 21 22 23 24 24 23 23 23 23 22 22 23 21 20 20 19 19 19 15 10 10 11 13 15 16 15 15 15 14 14 16 16 16 16
10 12 14 16 17 18 17 16 14 11 9 8 7 6 7 8 9 10 10 9 7 6 5 4 3 2 2 3 4 4 4 3 4 5 6 8 9 11 12 13 14 15 16 16 17 18 19 19 19 20 21 21 22 23 24 24 23 23 24 24 22 22 21 19 18 18 20 20 18 12 7 8 9 10 12 13 13 14 14 13 13 15 16 15 15
14 16 16 16 17 18 17 15 12 10 8 8 9 11 12 12 12 11 10 9 7 6 4 3 2 1 2 3 3 3 2 3 3 4 5 7 9 10 11 12 14 15 15 16 17 18 19 19 20 20 20 21 22 22 24 25 24 24 24 24 23 21 20 18 18 19 20 18 15 10 6 6 7 8 9 10 11 11 12 12 12 13 13 15 18
16 16 17 17 18 18 17 15 12 11 11 12 13 13 13 12 11 10 9 8 6 4 3 2 1 1 2 4 4 3 3 3 4 4 5 7 9 10 11 12 13 14 14 15 16 17 18 19 20 20 20 20 20 22 23 23 23 23 23 23 22 21 19 18 19 20 17 14 11 7 4 4 5 5 6 8 8 8 8 10 10 12 14 18 21
15 16 17 18 18 17 16 15 14 14 14 13 13 12 11 10 8 7 6 6 4 3 2 2 2 3 4 5 5 5 5 5 5 5 6 7 8 10 12 13 13 14 15 16 16 17 18 19 20 21 21 20 21 22 23 23 22 22 22 22 21 21 19 19 19 18 14 11 9 5 2 1 2 3 5 6 8 9 10 11 13 16 17 18 19
16 17 18 18 18 17 16 15 14 14 12 10 8 8 7 7 6 6 5 4 3 2 2 2 3 4 4 5 6 6 7 7 7 7 7 7 8 10 12 13 14 14 15 17 17 18 18 19 20 21 21 22 22 23 25 25 24 24 23 21 20 20 19 18 17 15 11 9 7 5 4 4 4 5 6 7 9 11 12 14 17 19 19 19 19
18 18 18 18 17 16 13 12 10 9 8 7 6 6 6 6 6 5 5 4 3 3 3 3 4 4 5 5 6 6 7 8 8 8 8 8 9 10 12 13 14 15 15 16 17 18 18 19 20 20 21 22 23 25 27 28 27 25 24 22 19 18 17 16 14 12 9 7 6 6 7 8 9 9 10 11 13 15 16 16 18 20 20 21 21
17 16 15 15 14 12 11 9 8 8 7 6 6 6 6 6 5 5 5 5 5 4 4 4 4 4 5 5 6 7 7 8 9 9 9 9 9 10 11 14 15 16 15 16 17 18 19 19 20 21 20 21 24 26 28 30 28 26 25 23 20 18 16 14 12 11 9 6 7 9 10 12 13 13 14 16 18 19 19 19 20 22 23 23 24
13 12 11 11 10 10 9 8 8 7 7 7 7 6 6 6 6 6 6 6 6 6 5 5 5 5 5 5 6 6 7 8 9 10 10 10 10 11 11 13 15 16 16 16 17 18 19 20 20 21 21 22 22 25 28 31 30 27 26 24 20 17 14 12 11 12 10 9 10 12 14 15 16 16 17 18 19 20 20 21 22 24 24 24 25
12 11 10 10 10 10 9 8 8 8 7 7 7 7 7 7 7 7 7 6 6 6 6 5 5 5 5 5 6 6 7 8 9 10 10 11 12 12 12 12 14 15 16 16 17 18 19 19 19 20 22 23 22 23 28 31 31 28 26 24 20 17 14 13 13 14 14 13 15 16 18 20 20 20 19 20 21 22 22 22 23 24 25 25 25
11 11 11 10 10 10 9 9 9 8 8 7 7 7 8 8 8 9 8 7 7 7 7 6 6 6 6 6 6 7 7 8 9 9 10 11 12 13 12 11 12 14 15 17 17 18 19 19 18 19 22 25 24 24 28 32 32 28 25 23 20 18 17 16 16 16 17 18 19 21 22 23 23 23 22 23 24 24 24 23 24 25 26 26 26
11 11 11 11 11 10 10 10 10 9 9 9 9 9 9 10 10 9 9 8 8 8 8 8 8 7 7 7 7 7 7 8 9 9 10 11 12 13 12 11 11 12 14 17 18 17 17 18 18 18 21 25 26 26 29 32 32 29 25 22 21 20 20 19 18 19 20 21 22 23 24 24 24 23 23 25 26 26 26 26 27 28 28 27 27
Wind_Direction
236 237 238 238 237 236 236 235 235 236 238 242 245 248 250 250 248 246 241 234 225 219 213 208 205 201 196 193 193 191 187 185 184 177 169 164 158 156 150 134 126 103 70 48 27 12 356 345 337 330 320 306 297 296 294 290 288 285 284 281 276 272 269 265 268 277 279 275 277 282 287 293 294 292 293 296 300 301 298 298 301 303 300 293 284
240 241 242 242 241 240 240 239 238 239 240 241 244 247 248 249 250 247 243 236 228 222 217 212 208 202 197 194 192 189 188 188 186 179 174 172 167 164 157 148 142 121 64 13 358 352 344 337 332 328 320 307 297 292 289 286 282 279 278 278 278 277 276 274 275 281 285 283 283 285 285 287 288 287 289 292 294 297 294 293 295 298 299 300 295
246 246 245 245 246 245 245 244 243 243 243 243 244 246 246 247 248 248 245 239 231 224 220 215 209 204 199 195 192 189 189 189 184 176 170 166 164 165 162 157 157 157 146 331 327 329 328 325 323 322 319 312 303 296 290 283 280 280 277 274 275 276 275 276 276 280 286 289 289 289 289 290 289 289 291 290 289 290 287 285 286 287 290 295 298
256 254 251 251 252 251 250 250 248 246 247 247 248 249 248 247 247 247 245 240 232 225 220 215 209 204 200 197 193 191 190 187 181 176 173 169 165 166 167 166 165 171 206 278 301 308 310 311 312 312 311 307 304 300 294 289 285 282 279 275 272 274 275 275 274 277 284 288 289 290 292 293 291 292 295 295 292 287 283 281 281 282 283 284 288
270 263 259 258 257 256 256 254 252 251 251 251 252 253 252 250 249 247 244 240 233 225 218 212 209 206 203 200 196 194 192 187 181 179 181 181 176 175 175 178 186 219 274 297 305 307 306 304 303 304 301 299 298 297 295 292 290 284 280 278 274 272 274 274 273 274 279 283 287 290 290 290 290 291 295 297 298 294 286 282 280 281 281 282 282
359 284 269 266 264 263 263 261 259 258 257 257 257 256 256 255 253 250 246 239 230 223 218 212 209 207 204 202 199 196 192 186 182 184 188 190 189 190 191 199 233 281 303 310 310 309 308 305 301 298 294 291 289 289 289 288 287 283 280 278 277 275 273 272 271 271 273 278 284 287 286 286 285 287 289 291 295 297 294 290 285 282 281 281 281
31 16 309 277 271 270 269 269 268 267 266 265 261 258 258 257 254 249 243 234 226 222 219 214 209 206 203 201 201 200 193 188 188 191 193 195 195 197 203 221 264 294 306 311 313 313 311 307 303 298 292 289 285 284 284 282 280 279 278 277 277 276 274 272 271 271 271 274 278 281 283 283 282 282 282 284 287 289 291 292 290 287 283 281 283
21 21 8 307 277 275 276 277 276 274 272 269 265 261 257 253 249 244 239 237 234 225 218 212 207 204 203 201 199 199 195 192 194 196 198 201 200 198 206 227 261 291 304 310 314 316 313 309 305 299 292 288 284 280 278 277 277 277 275 273 274 274 273 273 271 270 270 271 273 276 279 280 279 279 279 278 280 282 285 291 293 292 290 286 283
6 5 2 348 316 295 288 286 284 281 277 273 270 266 258 249 247 245 242 245 240 224 214 212 208 203 202 201 201 202 200 198 200 202 203 202 198 199 211 231 253 279 299 308 311 312 311 307 305 305 302 295 289 281 274 270 269 270 270 270 270 270 269 269 269 268 268 268 269 271 274 274 275 278 277 273 275 281 284 287 289 290 291 288 282
355 353 351 345 337 325 311 300 294 287 280 274 271 269 262 257 257 253 246 241 233 219 211 211 209 205 203 204 205 204 201 201 202 204 204 200 196 200 208 217 246 285 303 308 307 306 306 303 301 304 305 302 295 289 281 274 268 265 264 264 265 266 267 266 266 266 267 267 268 268 268 269 268 270 273 274 276 279 281 282 284 289 293 291 284
344 343 341 337 335 329 320 311 300 288 278 270 265 262 260 259 258 255 247 238 229 218 210 207 206 206 206 205 202 197 195 197 198 198 197 196 195 192 192 207 274 304 309 309 305 302 302 299 296 296 297 296 294 289 285 282 276 270 266 262 260 259 260 262 263 263 264 265 266 266 266 267 266 265 268 272 274 274 275 278 280 282 286 287 286
334 332 329 329 328 324 316 310 302 290 276 267 262 256 252 251 251 248 243 236 228 217 209 205 204 204 204 201 196 192 192 193 191 189 187 189 192 186 182 228 298 308 310 309 306 304 301 298 295 290 289 293 295 289 282 280 280 277 274 270 266 260 256 255 257 258 261 263 264 264 263 266 268 265 264 269 272 273 273 273 273 273 274 275 278
323 321 319 317 315 314 310 303 297 290 278 265 258 252 246 242 242 242 239 233 224 213 207 204 201 198 196 194 191 190 190 187 183 180 177 182 189 186 185 303 313 314 314 312 310 306 302 299 296 291 288 293 294 288 280 279 278 278 278 276 272 267 262 258 255 255 256 259 262 262 261 264 266 265 265 268 270 272 271 269 267 266 266 266 268
313 312 311 309 305 304 301 295 292 291 284 267 251 244 239 237 239 240 237 229 217 208 204 200 196 193 191 190 188 187 185 179 174 173 173 179 190 196 292 322 327 323 322 322 317 309 303 298 294 290 289 288 286 282 280 282 282 281 280 277 273 271 268 265 262 258 256 255 257 259 259 260 263 265 265 265 265 266 267 267 266 265 265 265 267
305 303 302 301 300 299 297 294 292 292 287 272 250 238 235 235 237 237 233 224 213 206 201 197 193 190 188 187 184 180 175 171 171 174 176 183 204 263 324 330 333 330 328 328 323 313 306 300 293 290 289 286 284 283 283 286 287 285 282 278 275 272 268 265 262 258 255 253 254 257 259 259 260 263 263 261 261 262 264 265 266 266 268 269 268
296 294 292 293 295 297 297 295 293 291 288 275 256 242 235 233 234 233 227 219 210 204 200 195 190 187 184 183 177 170 168 171 176 179 182 196 250 319 333 333 333 332 330 328 323 315 309 303 295 288 287 285 283 282 283 286 288 287 283 280 278 275 270 267 263 259 257 256 255 257 260 260 260 261 260 259 258 261 266 266 263 261 264 265 263
287 286 286 287 289 291 292 291 290 289 284 275 261 248 237 231 232 230 221 213 207 201 196 190 186 183 179 174 170 165 167 175 180 181 192 248 316 335 336 332 330 329 326 322 318 311 307 307 302 290 284 283 281 279 281 284 286 286 284 283 280 277 274 272 269 266 265 265 263 262 262 261 261 261 260 260 258 259 263 263 258 255 255 256 258
283 282 283 284 284 283 284 284 284 284 280 274 264 252 241 231 228 225 218 209 202 195 188 181 176 174 170 166 168 168 168 174 181 189 236 306 334 340 335 328 325 324 320 315 312 305 301 304 303 291 283 282 280 280 281 283 285 285 284 283 281 279 277 276 274 272 271 271 270 269 267 265 263 261 261 260 258 256 255 254 253 252 251 251 253
282 281 281 281 279 278 278 278 278 278 275 270 261 250 240 227 221 218 211 200 191 183 177 170 164 164 164 164 170 172 168 170 185 233 285 323 340 340 331 324 320 318 314 311 310 305 298 297 295 290 288 287 286 286 285 285 284 283 282 282 280 277 278 278 277 275 275 273 272 270 269 267 264 262 260 259 258 254 250 248 248 246 247 248 248
284 282 280 278 275 274 274 273 274 274 272 267 256 244 233 222 214 205 194 184 175 168 165 161 158 158 161 165 171 172 166 170 213 286 308 328 337 336 330 323 318 316 313 310 310 307 302 299 296 293 290 288 288 289 288 286 284 282 280 278 275 276 279 279 277 276 276 275 273 271 270 268 265 263 260 258 257 252 247 244 240 238 241 244 243
286 284 281 279 277 275 273 270 271 272 268 259 246 236 226 214 201 187 175 167 159 153 153 152 152 153 159 167 170 166 164 188 285 320 327 330 331 332 329 322 318 315 311 308 307 305 303 300 296 293 289 285 285 287 286 284 282 280 277 273 272 275 278 278 277 276 275 274 273 271 269 267 265 262 259 257 254 250 247 243 238 236 238 239 239
284 282 281 279 277 277 276 274 271 268 259 245 233 221 209 197 184 171 162 153 147 145 147 148 150 154 159 164 162 158 171 301 336 339 335 329 325 326 324 321 319 315 308 304 305 303 299 297 294 292 288 286 286 287 286 285 283 280 276 275 274 275 276 276 275 274 272 271 270 268 266 264 263 261 257 255 252 248 245 242 238 237 238 237 237
279 279 278 277 275 276 276 272 266 255 240 225 211 195 183 174 165 158 153 146 142 142 145 149 153 155 156 157 155 154 156 348 349 340 330 324 320 320 319 318 318 313 303 300 301 299 296 294 292 290 289 288 289 290 289 288 285 280 277 276 276 276 274 273 271 269 267 265 264 263 261 260 260 259 256 253 251 248 245 243 241 239 239 239 239
278 278 276 274 275 274 269 260 246 228 212 198 186 174 165 158 152 149 146 142 140 142 145 148 150 148 145 144 140 110 5 347 339 331 324 317 315 314 314 313 313 310 302 296 296 294 292 291 291 291 292 292 293 292 291 288 283 279 277 276 276 275 272 268 265 264 262 259 258 257 255 254 254 254 254 253 252 251 249 248 247 244 243 242 241
276 275 273 273 273 267 251 232 213 199 188 177 165 157 150 146 144 142 141 140 140 141 142 142 139 135 128 123 111 53 358 342 334 328 321 316 314 315 316 317 316 312 303 296 295 294 293 293 295 295 295 295 294 292 290 286 283 280 279 278 276 272 268 264 262 260 257 255 254 253 253 252 250 250 252 252 252 253 252 252 250 248 246 245 244
271 269 269 268 261 238 204 182 173 168 163 156 149 145 143 142 140 139 138 137 134 134 134 132 129 124 118 111 86 33 8 351 337 329 325 322 319 319 322 322 318 312 306 302 301 300 298 299 299 297 295 295 293 291 289 287 286 285 283 281 276 271 266 262 259 256 254 253 252 253 254 254 253 252 252 249 248 248 248 249 249 247 244 244 246
265 263 260 248 211 174 155 145 141 139 138 138 139 139 141 141 139 138 136 132 130 130 130 128 127 125 119 110 91 49 11 349 338 334 332 327 323 322 323 321 317 313 310 308 307 305 302 301 299 299 299 299 297 295 294 293 291 290 288 285 279 272 267 263 260 258 257 256 256 256 257 256 254 252 250 246 244 243 243 243 244 243 241 241 244
256 244 213 166 148 144 139 135 133 132 134 137 140 143 143 141 138 137 135 132 132 133 131 128 126 125 123 120 109 60 355 350 347 339 334 330 327 326 324 322 320 316 313 312 310 307 304 303 304 305 306 305 304 302 300 298 295 293 291 287 283 277 273 270 266 264 263 262 261 261 259 256 253 250 247 243 241 240 240 239 239 240 240 241 242
164 143 135 131 130 130 130 130 131 132 134 136 139 140 139 135 132 131 131 130 129 128 127 128 128 126 127 128 118 40 2 356 347 338 333 331 331 329 325 323 320 316 314 316 315 310 306 308 310 311 311 310 309 306 304 302 299 296 292 288 284 281 278 275 273 271 270 268 265 262 259 256 253 250 246 242 241 241 240 238 237 240 240 240 242
116 116 119 121 123 125 125 126 128 126 124 126 128 127 126 126 126 126 126 126 124 121 119 123 126 126 125 122 98 62 29 358 346 341 338 335 333 332 329 327 324 321 325 327 321 313 312 314 314 314 314 313 311 308 306 305 302 300 296 292 287 284 282 280 279 278 275 271 266 263 259 255 252 250 246 243 243 243 241 238 239 240 239 238 239
111 113 116 118 121 122 121 121 122 121 122 124 125 123 121 122 124 125 125 126 128 129 130 131 133 132 127 119 105 73 33 5 353 348 343 340 339 340 340 340 338 338 339 335 323 316 317 316 315 315 315 313 311 309 308 306 304 302 301 298 293 289 285 282 281 279 276 272 268 265 259 254 251 249 245 242 241 241 239 237 237 237 238 237 236
112 115 117 118 120 121 122 124 126 127 127 128 128 126 126 126 127 131 135 137 140 146 148 144 140 135 125 119 111 71 25 7 360 354 350 348 348 348 351 355 355 352 349 340 325 320 320 318 317 318 317 314 312 310 308 307 305 303 301 299 296 291 286 283 282 281 279 275 271 267 261 256 253 250 246 241 238 236 234 233 232 233 235 236 235
115 119 123 125 128 130 130 131 132 132 132 131 131 132 134 136 136 136 138 139 139 141 141 138 133 127 121 114 98 61 27 14 7 2 359 357 354 353 355 358 358 356 352 342 330 325 323 322 321 321 319 315 313 311 310 308 306 304 301 297 294 291 289 287 285 284 281 275 271 267 263 258 254 248 243 238 233 230 228 228 227 228 229 231 233
120 128 136 140 143 140 136 135 136 137 138 138 139 140 143 146 147 142 135 131 130 130 131 130 125 118 115 110 88 49 27 18 12 9 6 1 358 359 0 358 354 355 353 345 336 329 326 324 322 319 317 315 313 312 311 308 305 303 300 296 293 291 291 290 288 285 281 277 273 270 266 261 254 245 239 232 226 225 226 225 224 225 226 227 229
139 151 161 161 154 144 141 142 143 143 143 144 146 149 150 151 151 148 144 142 141 139 136 131 124 115 110 105 82 39 24 19 14 13 12 8 7 8 6 359 352 351 350 346 340 333 328 324 321 318 316 315 314 312 310 307 305 302 299 297 295 293 293 292 289 286 283 279 276 272 267 263 255 244 235 227 220 219 222 223 223 224 223 223 222
214 224 212 182 162 149 147 149 150 149 150 152 153 153 152 151 151 150 151 152 152 149 144 134 126 117 109 102 77 34 21 18 15 15 14 14 15 14 7 357 350 345 342 340 338 335 331 327 322 318 316 314 313 313 310 308 305 302 299 298 297 295 294 293 292 291 288 282 278 273 266 261 252 239 230 225 220 219 219 220 221 221 219 217 216
237 237 227 198 170 153 149 152 154 155 155 155 154 153 152 151 152 154 156 157 154 149 144 138 133 128 119 102 54 20 11 11 13 15 15 16 15 11 4 356 348 341 338 337 336 335 333 330 325 320 317 314 314 315 313 310 308 305 303 303 300 298 296 296 295 295 291 285 280 276 267 258 247 235 225 220 218 218 218 219 220 219 214 211 211
238 228 218 199 173 155 150 152 154 156 156 156 157 159 159 157 158 159 158 155 150 145 141 140 139 134 122 54 10 5 3 5 9 12 12 11 7 2 358 355 350 344 339 335 335 335 333 330 326 323 320 318 317 317 316 313 312 310 309 307 305 303 302 301 301 300 295 288 284 281 271 257 243 230 221 216 214 215 214 213 214 212 206 205 207
214 206 202 189 171 158 154 154 154 156 158 160 164 168 169 168 165 160 155 150 145 142 142 139 131 115 87 17 2 2 3 6 9 7 3 0 358 355 354 352 351 348 342 337 336 336 332 328 327 325 323 322 321 320 318 316 315 315 313 311 309 307 306 306 305 304 299 296 295 291 275 250 233 224 218 214 212 211 210 208 207 206 204 204 206
182 179 180 178 169 159 154 153 153 154 158 164 171 177 180 173 160 154 152 148 145 146 142 129 111 90 50 11 5 6 7 7 8 1 352 349 350 350 352 352 351 349 345 341 339 336 331 328 328 327 326 325 325 324 323 321 319 318 317 315 312 309 309 309 309 309 311 314 313 305 276 239 224 218 215 215 215 214 211 209 208 206 208 208 206
159 160 161 165 163 156 151 149 150 152 158 166 167 160 149 142 139 140 141 140 138 138 129 114 102 80 38 10 359 1 6 6 3 358 348 342 342 346 350 351 349 348 348 345 341 336 332 330 329 328 328 327 327 327 328 327 326 324 323 321 317 314 314 314 316 321 328 330 327 316 280 237 222 217 217 219 221 219 216 215 212 207 207 205 191
149 147 145 148 151 150 147 146 145 146 146 143 136 130 128 127 126 126 127 126 125 124 118 111 114 83 35 9 346 342 358 1 355 353 349 344 343 344 348 349 349 349 350 348 343 337 333 332 331 331 331 330 329 331 332 331 331 330 327 325 323 321 319 321 327 335 339 336 330 322 295 246 227 225 224 222 221 218 212 208 203 194 186 175 163
138 133 134 138 141 141 140 139 138 136 131 125 122 120 120 120 117 114 113 113 111 109 103 90 59 14 15 8 4 8 10 355 346 349 349 347 346 346 347 349 350 350 351 351 347 341 338 337 338 337 335 334 334 336 336 335 334 333 331 329 328 327 327 330 337 341 341 337 334 331 305 245 224 219 215 209 203 194 184 178 170 161 155 151 148
129 127 130 131 129 128 130 130 128 126 123 119 116 114 112 109 104 95 90 89 83 75 63 28 6 8 12 11 12 14 6 352 344 342 343 344 346 347 348 349 349 350 351 352 350 346 344 344 343 342 341 341 343 345 345 343 341 340 337 334 333 334 337 340 343 343 341 340 347 0 23 140 173 170 170 169 162 154 149 145 141 139 140 140 136
123 125 125 122 119 118 119 118 117 115 110 104 100 96 91 87 81 74 72 71 63 49 36 20 15 18 16 11 10 8 359 349 342 340 340 340 343 345 346 347 348 349 350 352 351 349 348 347 346 344 345 347 349 351 352 352 352 353 351 345 343 344 345 345 346 349 350 353 3 24 63 90 106 118 125 130 135 135 131 131 131 132 132 131 129
115 116 115 114 112 109 105 102 102 99 92 83 77 73 71 70 68 65 64 60 51 40 31 21 19 19 16 12 9 4 354 345 340 339 339 339 340 342 345 345 346 348 348 350 351 352 351 351 351 350 349 350 353 357 359 359 0 3 4 2 360 357 352 349 355 3 8 18 39 59 82 97 102 105 109 116 121 120 118 120 123 124 124 124 124
102 101 101 101 99 95 91 87 85 81 77 72 68 65 65 65 64 61 59 52 45 38 31 21 17 15 15 12 7 1 352 344 338 336 337 338 339 342 345 346 348 349 349 349 352 354 354 354 356 355 353 353 356 0 4 6 8 10 13 14 14 8 360 359 12 24 32 51 73 83 91 95 96 99 106 111 112 112 111 113 114 115 116 118 118
83 80 80 81 82 81 80 76 74 74 73 69 65 64 64 63 60 56 50 43 38 33 28 22 17 11 8 7 4 359 351 343 337 336 338 339 339 341 346 350 353 352 350 349 353 356 355 355 357 359 359 358 358 3 9 11 13 17 20 21 21 19 14 17 32 45 54 69 85 93 97 96 94 96 100 103 105 105 106 107 109 111 112 113 115
72 68 68 69 71 72 71 70 71 71 69 68 67 64 60 58 56 51 46 40 36 32 27 21 14 7 3 2 2 358 353 347 342 340 340 342 343 344 346 352 355 355 352 352 355 358 358 357 358 2 6 5 3 7 13 15 17 21 25 27 27 29 32 40 53 63 71 79 88 94 97 97 95 94 93 96 100 102 102 104 107 109 110 111 113
68 66 66 67 68 69 70 70 70 69 68 68 67 63 60 59 57 52 47 44 38 34 30 24 14 6 2 0 1 1 357 351 346 342 340 344 348 349 348 351 355 355 355 357 359 1 2 1 360 3 8 10 9 13 18 20 21 23 29 33 36 40 46 54 63 71 78 84 89 92 93 93 92 92 92 95 99 101 101 103 106 107 109 111 112
64 65 67 68 69 71 72 71 69 68 68 68 68 66 66 66 62 57 53 50 44 39 35 29 20 14 9 5 4 3 359 352 349 347 346 346 348 349 350 353 356 355 356 0 4 6 7 6 5 6 10 13 15 19 23 25 26 28 33 39 43 48 55 63 69 75 80 86 89 92 92 90 88 89 92 96 99 100 102 104 105 105 106 108 110